Lexington Weather

Lexington, Massachusetts, USA

24°F
3/3/2021 3:46am 
  • Lexington Conditions: Overcast
  • Temperature: 24.1°F / -4.4°CWarmer 1.5°F than last hour.
  • Dew Point: 10.6°FIncreased 0.6°Fsince last hour.
  • Relative Humidity: 56%Decreased 2.0% since last hour.
  • Wind: Wind from W W 3 mph, 10-min avg: 2 mph, gust: 8 mph
  • Barometer: 29.85 inFalling 0.03  inHg/hr Falling Slowly
  • Visibility: 10 miles
  • Snow Today: 0.0 in
  •   

Regional Weather Roundup
for Boston / Norton, MA

        
000
ASUS41 KBOX 251204
RWRBOX

REGIONAL WEATHER ROUNDUP
NATIONAL WEATHER SERVICE BOSTON/NORTON MA
700 AM EST THU FEB 25 2021

NOTE:  "FAIR" INDICATES FEW OR NO CLOUDS BELOW 12,000 FEET WITH NO 
SIGNIFICANT WEATHER AND/OR OBSTRUCTIONS TO VISIBILITY.

MAZALL-251300-
EASTERN MASSACHUSETTS
  
CITY           SKY/WX    TMP DP  RH WIND       PRES   REMARKS
BOSTON         PTCLDY    41  26  55 W16G26    29.81R                  
6HR MIN TEMP:  41; 6HR MAX TEMP:  47;                                

BEVERLY        MOCLDY    42  27  55 NW10G24   29.79R                  
LAWRENCE       PTCLDY    41  26  55 NW15G23   29.82R                  
BEDFORD        PTCLDY    41  26  55 W12       29.81R                  
BLUE HILL      NOT AVBL                                               
NORWOOD        CLEAR     42  25  50 W20G26    29.82R                  
MARSHFIELD     CLEAR     45  27  49 W15G33    29.78R                  
PLYMOUTH       CLEAR     42  25  50 W16G32    29.78R                  
TAUNTON        CLEAR     42  25  50 W13G24    29.81R                  
NEW BEDFORD    CLEAR     43  24  47 W25G33    29.80R                  
$$

MAZALL-251300-
CAPE COD AND THE ISLANDS
  
CITY           SKY/WX    TMP DP  RH WIND       PRES   REMARKS
FALMOUTH       CLEAR     41  25  52 NW22G36   29.78R WCI  31          
HYANNIS        PTCLDY    44  26  49 W13G25    29.76R                  
CHATHAM        PTCLDY    43  28  55 W12G24    29.78R                  
PROVINCETOWN   CLEAR     42  30  62 W24G32    29.77R                  
NANTUCKET      MOCLDY    42  33  70 NW18G24   29.80R                  
MARTHAS VNYRD  PTCLDY    42  26  53 NW17G35   29.81R                  
$$
 
MAZALL-251300-
CENTRAL AND WESTERN MASSACHUSETTS
  
CITY           SKY/WX    TMP DP  RH WIND       PRES   REMARKS
WORCESTER      CLEAR     37  22  54 W15G26    29.82R WCI  28          
6HR MIN TEMP:  37; 6HR MAX TEMP:  45;                                

FITCHBURG      CLEAR     39  23  52 NW16G24   29.83R WCI  30          
ORANGE         PTCLDY    37  23  56 NW12G24   29.86R WCI  29          
SPRINGFIELD    MOCLDY    37  24  58 NW17      29.89R WCI  28          
WESTFIELD      MOCLDY    37  24  59 NW12G29   29.91R WCI  29          
NORTH ADAMS    CLOUDY    35  21  56 W20G26    29.91R WCI  24          
PITTSFIELD     MOCLDY    32  22  66 NW16G37   29.89R WCI  21          
$$
 
RIZALL-251300-
RHODE ISLAND
  
CITY           SKY/WX    TMP DP  RH WIND       PRES   REMARKS
PROVIDENCE     PTCLDY    41  24  51 NW20G26   29.85R WCI  32          
6HR MIN TEMP:  41; 6HR MAX TEMP:  49;                                

NEWPORT        CLEAR     40  25  55 NW16G32   29.83R WCI  31          
BLOCK ISLAND   CLEAR     41  25  53 NW22G31   29.87R WCI  31          
SMITHFIELD     CLEAR     39  25  57 NW17G23   29.84R WCI  30          
WESTERLY       CLEAR     40  23  50 NW10G22   29.86R                  
$$
 
CTZALL-251300-
CONNECTICUT
  
CITY           SKY/WX    TMP DP  RH WIND       PRES   REMARKS
BRADLEY INTL   MOCLDY    38  23  55 NW15G35   29.92R WCI  29          
6HR MIN TEMP:  38; 6HR MAX TEMP:  46;                                

HARTFORD       CLEAR     41  20  43 NW23G38   29.94R WCI  31          
BRIDGEPORT     CLEAR     42  24  49 NW15G24   29.94R                  
DANBURY        CLEAR     40  22  48 W17G24    29.96R WCI  31          
GROTON         CLEAR     41  23  48 NW20G39   29.87R WCI  32          
NEW HAVEN      CLEAR     42  25  50 N15G22    29.93R                  
CHESTER        FAIR      39  21  48 NW16G35   29.89R WCI  30          
MERIDEN        CLEAR     40  19  43 N15G24    29.95R WCI  32          
WILLIMANTIC    CLEAR     39  22  50 NW16G26   29.91R WCI  30          
OXFORD         PTCLDY    37  25  61 NW10      29.93R WCI  30          
$$

MEZ002-015-021-024-NHZ003-005-008-011-012-014-VTZ005-008-251300-
NORTHERN NEW ENGLAND
  
CITY           SKY/WX    TMP DP  RH WIND       PRES   REMARKS
PORTLAND ME    PTCLDY    36  24  62 W20G31    29.72R WCI  25          
6HR MIN TEMP:  36; 6HR MAX TEMP:  45;                                

BANGOR ME      MOCLDY    36  27  69 NW21G30   29.59R WCI  25          
CONCORD NH     CLOUDY    35  21  56 NW25G32   29.82R WCI  23          
MANCHESTER NH  PTCLDY    40  22  48 NW22G33   29.81R WCI  30          
NASHUA NH      PTCLDY    40  25  55 NW16G31   29.82R WCI  31          
PORTSMOUTH NH  PTCLDY    38  19  46 NW16G23   29.77R WCI  29          
JAFFREY NH     CLOUDY    36  23  59 NW10G24   29.81R WCI  28          
KEENE NH       LGT RAIN  37  25  61 NW12G25   29.87R WCI  29          
BURLINGTON VT  MOCLDY    29  21  72 W7        29.94R WCI  22          
MT. WASHINGTON NOT AVBL                                               
$$

NYZ052-076-251300-
EASTERN NEW YORK
  
CITY           SKY/WX    TMP DP  RH WIND       PRES   REMARKS
ALBANY         PTCLDY    32  22  66 W14G29    29.96R WCI  22          
6HR MIN TEMP:  32; 6HR MAX TEMP:  43;                                

NEW YORK CITY  PTCLDY    41  22  46 NW25G32   29.98R WCI  31          
6HR MIN TEMP:  41; 6HR MAX TEMP:  52;                                

$$
 
ANZALL-251300-
MARINE OBSERVATIONS
  
STATION/POSITION TIME  TEMP    WIND        PRES    VSBY  WAVE
                       AIR SEA DIR/SP/G                  HT/PER
                 (UTC) (F)     (DEG/KT/KT) (MB)    (MI)  (FT/S)
BOSTON BUOY      1140   42 39  280/ 23/ 29 1008.3R
BUZZARDS BAY     1100          300/ 30/ 32 1009.0R
NANTUCKET SOUND  1150      36  310/ 25/ 33   N/A           2/ 3
MASS BAY-STELLWA 1104   43     280/ 21/ 27 1005.2R  1 7/8  4/ 5
ISLE OF SHOALS   1100   43     300/ 25/ 29 1005.8R
S OF BLOCK IS    1126      38                N/A           8/ 7
$$

......................KEY.........................
  SKY/WX - SKY CONDITION/PRESENT WEATHER
  TMP    - TEMPERATURE IN FAHRENHEIT
  DWPT   - DEWPOINT IN FAHRENHEIT
  RH     - RELATIVE HUMIDITY IN PERCENT
  WIND   - DIRECTION AND SPEED IN MPH
  PRES   - MEAN SEA LEVEL PRESSURE IN INCHES OF HG
  WCI    - WIND CHILL INDEX
  VSB    - VISIBILITY IN MILES
  HX     - HEAT INDEX
  TC     - TEMPERATURE IN CELSIUS
  VRB    - VARIABLE WIND DIRECTION
  N/A    - NOT AVAILABLE
  
      

Other recent Regional Weather Roundups

Wed Mar 3, 3:04am

Wed Mar 3, 2:04am

Wed Mar 3, 1:04am

Wed Mar 3, 12:04am

Tue Mar 2, 11:04pm

Tue Mar 2, 10:05pm

Tue Mar 2, 9:04pm

Tue Mar 2, 8:04pm

Tue Mar 2, 7:04pm

Tue Mar 2, 6:04pm

Tue Mar 2, 5:04pm

Tue Mar 2, 4:05pm

Tue Mar 2, 3:04pm

Tue Mar 2, 2:04pm

Tue Mar 2, 1:04pm

Tue Mar 2, 12:04pm

Tue Mar 2, 11:04am

Tue Mar 2, 10:05am

Tue Mar 2, 9:04am

Tue Mar 2, 8:04am

Tue Mar 2, 7:04am

Tue Mar 2, 6:05am

Tue Mar 2, 5:04am

Tue Mar 2, 4:04am

Tue Mar 2, 3:04am

Tue Mar 2, 2:04am

Tue Mar 2, 1:04am

Tue Mar 2, 12:04am

Mon Mar 1, 11:04pm

Mon Mar 1, 10:04pm

Mon Mar 1, 9:04pm

Mon Mar 1, 8:04pm

Mon Mar 1, 7:04pm

Mon Mar 1, 6:04pm

Mon Mar 1, 5:04pm

Mon Mar 1, 4:05pm

Mon Mar 1, 3:05pm

Mon Mar 1, 2:04pm

Mon Mar 1, 1:04pm

Mon Mar 1, 12:04pm

Mon Mar 1, 11:04am

Mon Mar 1, 10:04am

Mon Mar 1, 9:04am

Mon Mar 1, 8:05am

Mon Mar 1, 7:04am

Mon Mar 1, 6:04am

Mon Mar 1, 5:04am

Mon Mar 1, 4:05am

Mon Mar 1, 3:04am

Mon Mar 1, 2:04am

Mon Mar 1, 1:04am

Mon Mar 1, 12:05am

Sun Feb 28, 11:04pm

Sun Feb 28, 10:04pm

Sun Feb 28, 9:04pm

Sun Feb 28, 8:04pm

Sun Feb 28, 7:04pm

Sun Feb 28, 6:05pm

Sun Feb 28, 5:04pm

Sun Feb 28, 4:05pm

Sun Feb 28, 3:04pm

Sun Feb 28, 2:04pm

Sun Feb 28, 1:04pm

Sun Feb 28, 12:04pm

Sun Feb 28, 11:04am

Sun Feb 28, 10:04am

Sun Feb 28, 9:04am

Sun Feb 28, 8:04am

Sun Feb 28, 7:04am

Sun Feb 28, 6:04am

Sun Feb 28, 5:04am

Sun Feb 28, 4:04am

Sun Feb 28, 3:04am

Sun Feb 28, 2:04am

Sun Feb 28, 1:04am

Sun Feb 28, 12:04am

Sat Feb 27, 11:04pm

Sat Feb 27, 10:04pm

Sat Feb 27, 9:04pm

Sat Feb 27, 8:04pm

Sat Feb 27, 7:04pm

Sat Feb 27, 6:04pm

Sat Feb 27, 5:04pm

Sat Feb 27, 4:04pm

Sat Feb 27, 3:05pm

Sat Feb 27, 2:05pm

Sat Feb 27, 1:04pm

Sat Feb 27, 12:04pm

Sat Feb 27, 11:04am

Sat Feb 27, 10:04am

Sat Feb 27, 9:05am

Sat Feb 27, 8:04am

Sat Feb 27, 7:04am

Sat Feb 27, 6:04am

Sat Feb 27, 5:04am

Sat Feb 27, 4:04am

Sat Feb 27, 3:04am

Sat Feb 27, 2:04am

Sat Feb 27, 1:04am

Sat Feb 27, 12:04am

Fri Feb 26, 11:04pm

Fri Feb 26, 10:04pm

Fri Feb 26, 9:04pm

Fri Feb 26, 8:04pm

Fri Feb 26, 7:04pm

Fri Feb 26, 6:04pm

Fri Feb 26, 5:04pm

Fri Feb 26, 4:04pm

Fri Feb 26, 3:04pm

Fri Feb 26, 2:04pm

Fri Feb 26, 1:04pm

Fri Feb 26, 12:04pm

Fri Feb 26, 11:04am

Fri Feb 26, 10:04am

Fri Feb 26, 9:04am

Fri Feb 26, 8:04am

Fri Feb 26, 7:04am

Fri Feb 26, 6:04am

Fri Feb 26, 5:04am

Fri Feb 26, 4:04am

Fri Feb 26, 3:04am

Fri Feb 26, 2:04am

Fri Feb 26, 1:04am

Fri Feb 26, 12:04am

Thu Feb 25, 11:04pm

Thu Feb 25, 10:04pm

Thu Feb 25, 9:04pm

Thu Feb 25, 8:05pm

Thu Feb 25, 7:05pm

Thu Feb 25, 6:04pm

Thu Feb 25, 5:04pm

Thu Feb 25, 4:05pm

Thu Feb 25, 3:05pm

Thu Feb 25, 2:04pm

Thu Feb 25, 1:04pm

Thu Feb 25, 12:05pm

Thu Feb 25, 11:04am

Thu Feb 25, 10:04am

Thu Feb 25, 9:04am

Thu Feb 25, 8:04am

Thu Feb 25, 6:04am

Thu Feb 25, 5:04am

Thu Feb 25, 4:04am

Thu Feb 25, 3:04am

Thu Feb 25, 2:04am

Thu Feb 25, 1:04am

Thu Feb 25, 12:04am

Wed Feb 24, 11:04pm

Wed Feb 24, 10:05pm

Wed Feb 24, 9:04pm

Wed Feb 24, 8:04pm

Wed Feb 24, 7:04pm

Wed Feb 24, 6:04pm

Wed Feb 24, 5:04pm

Wed Feb 24, 4:04pm

Wed Feb 24, 3:04pm

Wed Feb 24, 2:05pm

Wed Feb 24, 1:05pm

Wed Feb 24, 12:05pm

Wed Feb 24, 11:04am

Wed Feb 24, 10:04am

Wed Feb 24, 9:04am

Wed Feb 24, 8:04am

Wed Feb 24, 7:04am

Wed Feb 24, 6:04am

Wed Feb 24, 5:04am

Wed Feb 24, 4:04am

Meta data:

ID: 654285f2-3895-42d2-9fa6-177caa85162b
Link: https://api.weather.gov/products/654285f2-3895-42d2-9fa6-177caa85162b